Location: Hall+in+Tirol
(47.2830°N, 11.5170°E)
Time: 10:44:56
(UTC+02:00)

Amateur Radio Satellites - All Passes

Search period start: 16 April 2014 10:14
Search period end: 17 April 2014 10:14
Location: Hall+in+Tirol, 47.2830°N, 11.5170°E

Satellite Date Start Highest point End Downlink Frequencies (MHz)
Time Altitude Azimuth
Sapphire 16 Apr 10:26:17 10:31:39 56° 51° (NE) 10:36:58 437.095 MHz 1200 baud AX-25 AFSK
FUNcube-1 16 Apr 11:03:19 11:06:39 22° 93° (E) 11:10:01 145.950 - 145.970 MHz USB
Oscar 10/S400 16 Apr 11:10:15 12:43:53 49° 226° (SW) 18:51:09 145.825 - 145.975 CW/USB, Beacon 145.810 USB
PCSat 16 Apr 11:11:37 11:17:01 68° 241° (WSW) 11:22:23 145.825 MHz
Oscar 11 16 Apr 11:24:10 11:28:32 77° 285° (WNW) 11:32:53 145.825 FM, Beacon 2401.500 USB
KITSAT 1 16 Apr 11:30:20 11:37:52 40° 37° (NE) 11:45:21 435.175 FM
Saudisat 1A 16 Apr 11:32:00 11:33:53 12° 109° (ESE) 11:35:45 436.775 MHz
HO-68 16 Apr 11:57:52 12:04:25 40° 300° (WNW) 12:10:57 435.675 MHz FM
Oscar 16 16 Apr 12:00:25 12:01:49 11° 52° (NE) 12:03:14 437.025 USB, Beacon 2401.1428
RS-15 16 Apr 12:01:53 12:11:34 33° 347° (NNW) 12:21:11 29.354 - 29.394 USB, Beacon 29.352 USB
Sapphire 16 Apr 12:10:18 12:14:44 26° 251° (WSW) 12:19:10 437.095 MHz 1200 baud AX-25 AFSK
Uribyol 2 16 Apr 12:28:49 12:30:10 11° 52° (NE) 12:31:31 436.500 FM
FUNcube-1 16 Apr 12:39:19 12:43:13 38° 291° (WNW) 12:47:10 145.950 - 145.970 MHz USB
PCSat 16 Apr 12:58:40 12:59:24 10° 259° (W) 13:00:09 145.825 MHz
Oscar 11 16 Apr 13:03:21 13:03:58 10° 304° (NW) 13:04:35 145.825 FM, Beacon 2401.500 USB
AO-27 16 Apr 13:04:09 13:07:56 21° 59° (ENE) 13:11:43 436.795 MHz FM
Saudisat 1A 16 Apr 13:08:20 13:12:48 89° 127° (SE) 13:17:18 436.775 MHz
ITAMSAT 1 16 Apr 13:15:24 13:19:33 25° 61° (ENE) 13:23:41 435.822 SSB
KITSAT 1 16 Apr 13:25:48 13:33:51 69° 241° (WSW) 13:41:50 435.175 FM
Oscar 19 16 Apr 13:27:39 13:32:36 52° 69° (ENE) 13:37:37 437.125 CW, 437.150 USB
Oscar 16 16 Apr 13:35:08 13:40:11 64° 71° (ENE) 13:45:19 437.025 USB, Beacon 2401.1428
HO-68 16 Apr 13:49:30 13:50:13 10° 322° (NW) 13:50:56 435.675 MHz FM
AO-Echo 16 Apr 13:59:00 14:03:58 44° 68° (ENE) 14:08:51 ?
Uribyol 2 16 Apr 14:03:34 14:08:40 63° 71° (ENE) 14:13:47 436.500 FM
Gurwin Techsat 1B 16 Apr 14:14:21 14:18:45 27° 62° (ENE) 14:23:09 435.225 FM
RS-15 16 Apr 14:17:49 14:27:46 37° 22° (NNE) 14:37:44 29.354 - 29.394 USB, Beacon 29.352 USB
AO-7 16 Apr 14:31:48 14:37:38 22° 45° (NE) 14:43:28 29.400 - 29.500 MHz
AO-27 16 Apr 14:41:50 14:46:59 65° 258° (WSW) 14:52:11 436.795 MHz FM
JAS-1B 16 Apr 14:47:27 14:53:59 30° 60° (ENE) 14:59:40 435.800 - 435.900 CW/SSB
Saudisat 1A 16 Apr 14:49:44 14:53:02 20° 328° (NNW) 14:56:20 436.775 MHz
OPAL 16 Apr 14:50:42 14:53:49 16° 91° (E) 14:56:56 ?
ITAMSAT 1 16 Apr 14:53:40 14:58:44 53° 260° (W) 15:03:49 435.822 SSB
TMSAT-1 16 Apr 15:04:03 15:09:08 49° 69° (ENE) 15:14:14 436.925 FM
Oscar 19 16 Apr 15:08:11 15:12:15 23° 268° (W) 15:16:21 437.125 CW, 437.150 USB
Oscar 16 16 Apr 15:16:26 15:20:01 19° 270° (W) 15:23:37 437.025 USB, Beacon 2401.1428
KITSAT 1 16 Apr 15:23:35 15:27:46 15° 261° (W) 15:31:56 435.175 FM
AO-Echo 16 Apr 15:38:24 15:42:53 28° 266° (W) 15:47:20 ?
Uribyol 2 16 Apr 15:44:56 15:48:35 19° 269° (W) 15:52:16 436.500 FM
Uosat F 16 Apr 15:52:50 15:57:43 53° 70° (ENE) 16:02:37 435.120 FM
Gurwin Techsat 1B 16 Apr 15:53:20 15:58:28 49° 261° (W) 16:03:38 435.225 FM
AO-7 16 Apr 16:20:56 16:29:10 75° 67° (ENE) 16:37:27 29.400 - 29.500 MHz
ISS 16 Apr 16:27:30 16:28:49 12° 133° (SE) 16:30:08 145.800 FM
OPAL 16 Apr 16:28:04 16:33:18 79° 289° (WNW) 16:38:31 ?
RS-15 16 Apr 16:30:57 16:41:57 81° 51° (NE) 16:53:10 29.354 - 29.394 USB, Beacon 29.352 USB
JAS-1B 16 Apr 16:36:01 16:44:16 68° 257° (WSW) 16:51:10 435.800 - 435.900 CW/SSB
SO-50 16 Apr 16:40:23 16:44:20 31° 117° (ESE) 16:48:20 436.795 FM
TMSAT-1 16 Apr 16:44:58 16:49:19 26° 267° (W) 16:53:41 436.925 FM
Uosat F 16 Apr 17:32:59 17:36:50 22° 268° (W) 17:40:42 435.120 FM
Hamsat 16 Apr 17:46:45 17:50:20 28° 67° (ENE) 17:53:58 145.90 MHz
ISS 16 Apr 18:01:42 18:05:02 66° 151° (SSE) 18:08:23 145.800 FM
OPAL 16 Apr 18:08:39 18:11:23 15° 308° (NW) 18:14:06 ?
Saudisat 1A 16 Apr 18:15:08 18:16:09 11° 17° (NNE) 18:17:11 436.775 MHz
AO-7 16 Apr 18:15:55 18:22:43 28° 267° (W) 18:29:33 29.400 - 29.500 MHz
SO-50 16 Apr 18:20:34 18:24:49 40° 316° (NW) 18:29:07 436.795 FM
SO-67 16 Apr 18:25:07 18:26:33 12° 62° (ENE) 18:27:59 435.3500 MHz FM
JAS-1B 16 Apr 18:32:25 18:35:49 13° 274° (W) 18:39:02 435.800 - 435.900 CW/SSB
JAS-2 16 Apr 18:37:21 18:42:40 38° 67° (ENE) 18:47:35 435.800 - 435.900 CW/SSB, 435.910 FM
RS-15 16 Apr 18:44:06 18:53:14 33° 254° (WSW) 19:02:35 29.354 - 29.394 USB, Beacon 29.352 USB
HO-68 16 Apr 18:59:15 19:02:17 13° 42° (NE) 19:05:19 435.675 MHz FM
STRAND 1 16 Apr 19:00:59 19:04:51 21° 92° (E) 19:08:42 ?
UOSAT-12 16 Apr 19:22:31 19:27:03 67° 124° (SE) 19:31:41 437.025 FM, 437.400 FM
Hamsat 16 Apr 19:22:33 19:26:17 30° 265° (W) 19:30:03 145.90 MHz
ISS 16 Apr 19:38:42 19:41:56 42° 350° (N) 19:45:10 145.800 FM
Saudisat 1A 16 Apr 19:53:14 19:57:11 30° 40° (NE) 20:01:05 436.775 MHz
SO-67 16 Apr 19:55:51 19:59:17 56° 260° (W) 20:02:45 435.3500 MHz FM
SO-50 16 Apr 20:04:37 20:06:38 13° 339° (NNW) 20:08:40 436.795 FM
JAS-2 16 Apr 20:22:27 20:27:50 35° 263° (W) 20:32:47 435.800 - 435.900 CW/SSB, 435.910 FM
STRAND 1 16 Apr 20:39:25 20:44:24 55° 290° (WNW) 20:49:21 ?
HO-68 16 Apr 20:41:35 20:48:24 51° 64° (ENE) 20:55:16 435.675 MHz FM
Oscar 11 16 Apr 20:48:14 20:50:47 16° 60° (ENE) 20:53:21 145.825 FM, Beacon 2401.500 USB
UOSAT-12 16 Apr 21:03:48 21:07:38 25° 325° (NW) 21:11:32 437.025 FM, 437.400 FM
ISS 16 Apr 21:15:53 21:19:07 42° 10° (N) 21:22:21 145.800 FM
Saudisat 1A 16 Apr 21:32:44 21:36:56 44° 240° (WSW) 21:41:06 436.775 MHz
FUNcube-1 16 Apr 22:03:12 22:06:46 27° 66° (ENE) 22:10:19 145.950 - 145.970 MHz USB
Oscar 11 16 Apr 22:22:13 22:26:30 66° 258° (WSW) 22:30:49 145.825 FM, Beacon 2401.500 USB
HO-68 16 Apr 22:29:50 22:36:19 37° 264° (W) 22:42:51 435.675 MHz FM
UOSAT-12 16 Apr 22:48:33 22:49:28 11° 348° (NNW) 22:50:22 437.025 FM, 437.400 FM
ISS 16 Apr 22:52:40 22:56:01 65° 209° (SSW) 22:59:21 145.800 FM
MaSat-1 16 Apr 23:13:41 23:16:36 83° 299° (WNW) 23:19:12 437.345 MHz
SO-50 16 Apr 23:28:40 23:31:49 18° 29° (NNE) 23:34:59 436.795 FM
FUNcube-1 16 Apr 23:39:22 23:43:08 31° 264° (W) 23:46:53 145.950 - 145.970 MHz USB
UOSAT-12 17 Apr 00:30:33 00:31:49 11° 14° (NNE) 00:33:05 437.025 FM, 437.400 FM
ISS 17 Apr 00:30:55 00:32:14 12° 227° (SW) 00:33:33 145.800 FM
SO-50 17 Apr 01:08:33 01:13:11 72° 50° (NE) 01:17:53 436.795 FM
Sapphire 17 Apr 01:12:13 01:16:35 26° 109° (ESE) 01:20:58 437.095 MHz 1200 baud AX-25 AFSK
Oscar 19 17 Apr 01:37:31 01:40:18 14° 88° (E) 01:43:03 437.125 CW, 437.150 USB
Oscar 16 17 Apr 01:44:40 01:48:10 18° 90° (E) 01:51:39 437.025 USB, Beacon 2401.1428
PCSat 17 Apr 01:56:12 02:01:30 60° 118° (ESE) 02:06:51 145.825 MHz
OPAL 17 Apr 02:08:01 02:12:40 39° 64° (ENE) 02:17:24 ?
KITSAT 1 17 Apr 02:09:04 02:11:05 11° 96° (E) 02:13:05 435.175 FM
UOSAT-12 17 Apr 02:09:31 02:13:34 27° 37° (NE) 02:17:36 437.025 FM, 437.400 FM
Uribyol 2 17 Apr 02:14:12 02:17:36 17° 90° (E) 02:20:59 436.500 FM
SO-50 17 Apr 02:50:14 02:53:16 17° 249° (WSW) 02:56:20 436.795 FM
AO-27 17 Apr 02:51:51 02:56:36 35° 97° (E) 03:01:19 436.795 MHz FM
Sapphire 17 Apr 02:54:19 02:59:39 58° 308° (NW) 03:05:01 437.095 MHz 1200 baud AX-25 AFSK
ITAMSAT 1 17 Apr 03:03:17 03:08:14 43° 99° (E) 03:13:08 435.822 SSB
Oscar 19 17 Apr 03:15:05 03:20:19 84° 286° (WNW) 03:25:31 437.125 CW, 437.150 USB
TMSAT-1 17 Apr 03:17:59 03:21:01 15° 88° (E) 03:24:01 436.925 FM
Oscar 16 17 Apr 03:22:51 03:28:01 68° 288° (WNW) 03:33:11 437.025 USB, Beacon 2401.1428
PCSat 17 Apr 03:40:35 03:45:17 29° 319° (NW) 03:50:02 145.825 MHz
AO-Echo 17 Apr 03:41:43 03:46:36 78° 103° (ESE) 03:51:20 ?
OPAL 17 Apr 03:47:14 03:51:38 31° 263° (W) 03:56:08 ?
UOSAT-12 17 Apr 03:49:25 03:54:05 60° 237° (WSW) 03:58:42 437.025 FM, 437.400 FM
Uribyol 2 17 Apr 03:52:27 03:57:36 70° 288° (WNW) 04:02:45 436.500 FM
KITSAT 1 17 Apr 03:56:50 04:04:41 57° 116° (ESE) 04:12:35 435.175 FM
Uosat F 17 Apr 03:59:21 04:01:27 12° 87° (E) 04:03:32 435.120 FM
Gurwin Techsat 1B 17 Apr 04:06:06 04:11:19 53° 100° (E) 04:16:29 435.225 FM
JAS-1B 17 Apr 04:18:26 04:23:01 24° 92° (E) 04:27:35 435.800 - 435.900 CW/SSB
AO-7 17 Apr 04:20:15 04:25:50 19° 88° (E) 04:31:24 29.400 - 29.500 MHz
AO-27 17 Apr 04:31:27 04:36:07 35° 295° (WNW) 04:40:46 436.795 MHz FM
Sapphire 17 Apr 04:40:53 04:44:16 16° 331° (NNW) 04:47:40 437.095 MHz 1200 baud AX-25 AFSK
ITAMSAT 1 17 Apr 04:43:09 04:47:33 29° 297° (WNW) 04:51:57 435.822 SSB
Oscar 19 17 Apr 04:56:08 04:58:53 15° 305° (NW) 05:01:37 437.125 CW, 437.150 USB
TMSAT-1 17 Apr 04:56:16 05:01:36 81° 286° (WNW) 05:06:53 436.925 FM
Oscar 16 17 Apr 05:04:34 05:06:27 12° 307° (NW) 05:08:20 437.025 USB, Beacon 2401.1428
AO-Echo 17 Apr 05:21:55 05:24:45 16° 303° (WNW) 05:27:34 ?
PCSat 17 Apr 05:29:06 05:30:36 11° 343° (NNW) 05:32:06 145.825 MHz
Uribyol 2 17 Apr 05:34:14 05:36:10 12° 307° (NW) 05:38:07 436.500 FM
Uosat F 17 Apr 05:35:55 05:40:58 89° 288° (WNW) 05:45:58 435.120 FM
Gurwin Techsat 1B 17 Apr 05:46:42 05:50:59 25° 299° (WNW) 05:55:15 435.225 FM
KITSAT 1 17 Apr 05:52:37 06:00:21 46° 319° (NW) 06:08:08 435.175 FM
JAS-1B 17 Apr 06:08:35 06:14:09 51° 292° (WNW) 06:19:39 435.800 - 435.900 CW/SSB
AO-7 17 Apr 06:11:29 06:19:51 83° 109° (ESE) 06:28:12 29.400 - 29.500 MHz
STRAND 1 17 Apr 06:19:44 06:24:33 43° 67° (ENE) 06:29:22 ?
TMSAT-1 17 Apr 06:37:59 06:40:43 14° 305° (NW) 06:43:26 436.925 FM
RS-15 17 Apr 06:59:14 07:08:59 36° 107° (ESE) 07:18:27 29.354 - 29.394 USB, Beacon 29.352 USB
Hamsat 17 Apr 07:04:45 07:08:48 37° 97° (E) 07:12:51 145.90 MHz
Uosat F 17 Apr 07:16:20 07:19:03 15° 304° (NW) 07:21:45 435.120 FM
JAS-2 17 Apr 07:27:07 07:31:15 23° 93° (E) 07:35:36 435.800 - 435.900 CW/SSB, 435.910 FM
MaSat-1 17 Apr 07:34:02 07:36:42 44° 58° (ENE) 07:39:47 437.345 MHz
KITSAT 1 17 Apr 07:52:01 07:58:05 22° 346° (NNW) 08:04:09 435.175 FM
STRAND 1 17 Apr 07:59:31 08:03:53 28° 266° (W) 08:08:17 ?
AO-7 17 Apr 08:05:07 08:11:50 29° 310° (NW) 08:18:34 29.400 - 29.500 MHz
Sapphire 17 Apr 08:13:28 08:16:16 14° 24° (NNE) 08:19:02 437.095 MHz 1200 baud AX-25 AFSK
Hamsat 17 Apr 08:41:05 08:44:38 25° 294° (WNW) 08:48:11 145.90 MHz
SO-67 17 Apr 08:50:23 08:53:54 71° 284° (WNW) 08:57:23 435.3500 MHz FM
PCSat 17 Apr 08:58:09 09:02:23 22° 36° (NE) 09:06:36 145.825 MHz
RS-15 17 Apr 09:09:11 09:20:27 76° 311° (NW) 09:31:28 29.354 - 29.394 USB, Beacon 29.352 USB
JAS-2 17 Apr 09:11:35 09:16:42 54° 290° (WNW) 09:22:11 435.800 - 435.900 CW/SSB, 435.910 FM
MaSat-1 17 Apr 09:14:36 09:14:57 10° 251° (WSW) 09:15:19 437.345 MHz
KITSAT 1 17 Apr 09:50:34 09:56:47 23° 16° (NNE) 10:02:57 435.175 FM
HO-68 17 Apr 09:53:10 09:59:48 39° 97° (E) 10:06:24 435.675 MHz FM
Sapphire 17 Apr 09:55:57 10:01:09 44° 48° (NE) 10:06:19 437.095 MHz 1200 baud AX-25 AFSK
Oscar 11 17 Apr 10:07:37 10:10:41 18° 91° (E) 10:13:43 145.825 FM, Beacon 2401.500 USB
